This is the latest recevied weather packets stored in our database for station/object KN6CRX. If no packets are shown the sender has not sent any weather packets the latest 10 day(s).
| Time | Temp. | Humidity | Pressure | Rain* | Wind** | Luminosity | Snow |
|---|---|---|---|---|---|---|---|
| 1787528398 | 31.67° C | 28% | 1019 hPa | 0 mm | - | 73 W/m² | - |
| 1787528094 | 31.67° C | 28% | 1018.7 hPa | 0 mm | - | 77 W/m² | - |
| 1787527790 | 31.67° C | 29% | 1019 hPa | 0 mm | - | 124 W/m² | - |
| 1787527485 | 31.67° C | 28% | 1019 hPa | 0 mm | - | 70 W/m² | - |
| 1787527180 | 32.22° C | 27% | 1019.1 hPa | 0 mm | - | 99 W/m² | - |
| 1787526876 | 32.78° C | 28% | 1019.1 hPa | 0 mm | - | 112 W/m² | - |
| 1787526572 | 32.78° C | 27% | 1019.4 hPa | 0 mm | - | 128 W/m² | - |
| 1787526268 | 32.78° C | 26% | 1019.1 hPa | 0 mm | - | 181 W/m² | - |
| 1787525965 | 32.78° C | 26% | 1019.2 hPa | 0 mm | - | 150 W/m² | - |
| 1787525661 | 32.78° C | 27% | 1019.1 hPa | 0 mm | - | 136 W/m² | - |
| 1787525360 | 32.78° C | 27% | 1019.2 hPa | 0 mm | - | 178 W/m² | - |
| 1787525057 | 33.33° C | 29% | 1019.4 hPa | 0 mm | - | 454 W/m² | - |
| 1787524756 | 33.33° C | 28% | 1019.3 hPa | 0 mm | - | 566 W/m² | - |
| 1787524452 | 33.33° C | 26% | 1019.2 hPa | 0 mm | - | 633 W/m² | - |
| 1787524147 | 32.78° C | 26% | 1019.4 hPa | 0 mm | - | 658 W/m² | - |
| 1787523843 | 32.78° C | 26% | 1019.5 hPa | 0 mm | - | 663 W/m² | - |
| 1787523542 | 32.78° C | 26% | 1019.5 hPa | 0 mm | - | 676 W/m² | - |
| 1787523238 | 33.33° C | 27% | 1019.7 hPa | 0 mm | - | 684 W/m² | - |
| 1787522934 | 33.33° C | 25% | 1019.8 hPa | 0 mm | - | 696 W/m² | - |
| 1787522630 | 33.89° C | 25% | 1019.7 hPa | 0 mm | - | 711 W/m² | - |
| 1787522324 | 33.33° C | 23% | 1019.8 hPa | 0 mm | - | 718 W/m² | - |
| 1787522020 | 33.33° C | 24% | 1019.9 hPa | 0 mm | - | 728 W/m² | - |
| 1787521718 | 33.33° C | 24% | 1019.8 hPa | 0 mm | - | 738 W/m² | - |
| 1787521413 | 33.33° C | 24% | 1019.8 hPa | 0 mm | - | 751 W/m² | - |
| 1787521113 | 33.33° C | 26% | 1020 hPa | 0 mm | - | 760 W/m² | - |
* Rain latest hour (hover to see other rain measurements)
** Current wind speed in m/s (hover to see current wind gust speed)